DW7554 Weather Reports


time (UTC)temp
C
wind
direction
speed
KPH
gust
KPH
rain 1hr
cm
rain 24hr
cm
rain mn
cm
humidity
%
barometer
mb
20190420070512 10 225 0.0 0.0 0.00 0.00 0.00 60 1024.9
20190420070022 9 256 0.0 0.0 0.00 0.00 0.00 62 1024.9
20190420065518 9 121 0.0 0.0 0.00 0.00 0.00 63 1024.9
20190420065009 8 105 0.0 0.0 0.00 0.00 0.00 67 1024.9
20190420064513 8 105 0.0 0.0 0.00 0.00 0.00 68 1024.9
20190420064004 7 131 0.0 0.0 0.00 0.00 0.00 69 1025.0
20190420063014 7 111 0.0 0.0 0.00 0.00 0.00 70 1025.0
20190420061629 6 121 0.0 0.0 0.00 0.00 0.00 71 1025.0
20190420061057 6 109 0.0 0.0 0.00 0.00 0.00 71 1025.0
20190420060556 6 122 0.0 0.0 0.00 0.00 0.00 74 1025.1
20190420060139 6 108 0.0 0.0 0.00 0.00 0.00 74 1025.1
20190420060002 6 80 0.0 0.0 0.00 0.00 0.00 74 1025.1
20190420055604 5 96 0.0 0.0 0.00 0.00 0.00 74 1025.1
20190420055051 5 105 0.0 0.0 0.00 0.00 0.00 74 1025.2
20190420054614 5 107 0.0 0.0 0.00 0.00 0.00 74 1025.2
20190420054049 5 96 0.0 0.0 0.00 0.00 0.00 74 1025.3
20190420053545 5 110 0.0 0.0 0.00 0.00 0.00 75 1025.2
20190420053233 5 72 0.0 0.0 0.00 0.00 0.00 76 1025.3
20190420052543 4 76 0.0 0.0 0.00 0.00 0.00 78 1025.3
20190420052042 3 73 0.0 1.6 0.00 0.00 0.00 80 1025.3
20190420051712 3 71 0.0 0.0 0.00 0.00 0.00 83 1025.3
20190420051042 2 88 0.0 0.0 0.00 0.00 0.00 85 1025.3
20190420050542 2 73 0.0 0.0 0.00 0.00 0.00 86 1025.3
20190420050104 1 106 0.0 0.0 0.00 0.00 0.00 86 1025.2
20190420045541 1 91 0.0 0.0 0.00 0.00 0.00 87 1025.1
20190420045044 1 90 0.0 0.0 0.00 0.00 0.00 88 1025.1
20190420044630 1 115 0.0 0.0 0.00 0.00 0.00 87 1025.1
20190420044042 1 79 0.0 0.0 0.00 0.00 0.00 87 1025.1
20190420043538 1 109 0.0 0.0 0.00 0.00 0.00 87 1025.1
20190420043122 1 120 0.0 0.0 0.00 0.00 0.00 86 1025.2
20190420042536 1 113 0.0 0.0 0.00 0.00 0.00 85 1025.1
20190420042036 2 113 0.0 0.0 0.00 0.00 0.00 84 1025.1
20190420041610 2 119 0.0 0.0 0.00 0.00 0.00 85 1025.2
20190420041037 2 89 0.0 0.0 0.00 0.00 0.00 84 1025.1
20190420040538 2 104 0.0 0.0 0.00 0.00 0.00 84 1025.2
20190420040129 2 92 0.0 0.0 0.00 0.00 0.00 85 1025.2
20190420035536 2 98 0.0 0.0 0.00 0.00 0.00 84 1025.2
20190420035034 2 91 0.0 0.0 0.00 0.00 0.00 82 1025.3
20190420034557 3 94 0.0 0.0 0.00 0.00 0.00 82 1025.2
20190420034044 2 89 0.0 0.0 0.00 0.00 0.00 84 1025.2
20190420033533 2 91 0.0 0.0 0.00 0.00 0.00 86 1025.2
20190420033048 2 86 0.0 0.0 0.00 0.00 0.00 86 1025.2
20190420032532 2 86 0.0 0.0 0.00 0.00 0.00 86 1025.2
20190420032032 2 96 0.0 0.0 0.00 0.00 0.00 86 1025.3
20190420031558 1 108 0.0 0.0 0.00 0.00 0.00 86 1025.3
20190420031030 2 117 0.0 0.0 0.00 0.00 0.00 85 1025.3
20190420030529 2 128 0.0 0.0 0.00 0.00 0.00 84 1025.2
20190420030101 2 128 0.0 0.0 0.00 0.00 0.00 85 1025.3
20190420025529 2 102 0.0 0.0 0.00 0.00 0.00 86 1025.3
20190420025032 2 109 0.0 0.0 0.00 0.00 0.00 85 1025.3
20190420024543 2 91 0.0 0.0 0.00 0.00 0.00 85 1025.4
20190420023531 2 113 0.0 0.0 0.00 0.00 0.00 85 1025.4
20190420023038 2 96 0.0 0.0 0.00 0.00 0.00 85 1025.4
20190420022025 2 104 0.0 0.0 0.00 0.00 0.00 84 1025.4
20190420021538 2 133 0.0 0.0 0.00 0.00 0.00 84 1025.4
20190420021030 2 83 0.0 0.0 0.00 0.00 0.00 83 1025.4
20190420020526 2 120 0.0 0.0 0.00 0.00 0.00 82 1025.5
20190420020056 2 110 0.0 0.0 0.00 0.00 0.00 82 1025.4
20190420015014 3 87 0.0 0.0 0.00 0.00 0.00 81 1025.4
20190420014519 3 93 0.0 0.0 0.00 0.00 0.00 79 1025.4
20190420014019 3 113 0.0 0.0 0.00 0.00 0.00 78 1025.4
20190420013512 3 80 0.0 0.0 0.00 0.00 0.00 78 1025.4
20190420013019 3 82 0.0 0.0 0.00 0.00 0.00 79 1025.4
20190420012512 3 82 0.0 0.0 0.00 0.00 0.00 81 1025.4
20190420012002 3 107 0.0 0.0 0.00 0.00 0.00 79 1025.4
20190420011534 3 61 0.0 0.0 0.00 0.00 0.00 79 1025.4
20190420011002 3 120 0.0 0.0 0.00 0.00 0.00 78 1025.4
20190420010502 3 81 0.0 0.0 0.00 0.00 0.00 79 1025.4
20190420005559 3 77 0.0 0.0 0.00 0.00 0.00 78 1025.4
20190420005057 3 72 0.0 0.0 0.00 0.00 0.00 79 1025.5
20190420004642 3 82 0.0 0.0 0.00 0.00 0.00 78 1025.6
20190420004101 3 75 0.0 0.0 0.00 0.00 0.00 78 1025.5
20190420003601 3 67 0.0 0.0 0.00 0.00 0.00 78 1025.5
20190420003146 3 84 0.0 0.0 0.00 0.00 0.00 79 1025.6
20190420002054 3 93 0.0 0.0 0.00 0.00 0.00 79 1025.6
20190420001709 4 96 0.0 0.0 0.00 0.00 0.00 77 1025.6
20190420001054 3 62 0.0 1.6 0.00 0.00 0.00 79 1025.7
20190420000552 3 84 0.0 0.0 0.00 0.00 0.00 81 1025.7
20190419235050 3 100 0.0 0.0 0.00 0.00 0.00 78 1025.8
20190419234633 4 94 0.0 0.0 0.00 0.00 0.00 77 1025.9
20190419234049 4 113 0.0 0.0 0.00 0.00 0.00 76 1025.9
20190419233558 4 70 0.0 0.0 0.00 0.00 0.00 77 1026.0
20190419233145 4 93 0.0 0.0 0.00 0.00 0.00 76 1025.9
20190419232548 4 100 0.0 0.0 0.00 0.00 0.00 76 1026.0
20190419231638 4 82 0.0 0.0 0.00 0.00 0.00 75 1026.0
20190419231038 4 61 0.0 0.0 0.00 0.00 0.00 76 1026.0
20190419230536 4 70 0.0 0.0 0.00 0.00 0.00 77 1025.9
20190419230132 4 89 0.0 1.6 0.00 0.00 0.00 77 1025.9
20190419225535 3 66 0.0 1.6 0.00 0.00 0.00 79 1025.9
20190419225038 3 64 0.0 1.6 0.00 0.00 0.00 79 1025.9
20190419224625 3 92 0.0 1.6 0.00 0.00 0.00 80 1025.9
20190419223135 3 85 0.0 0.0 0.00 0.00 0.00 80 1025.8
20190419222532 3 84 0.0 0.0 0.00 0.00 0.00 80 1025.9
20190419222033 3 98 0.0 0.0 0.00 0.00 0.00 79 1025.8
20190419221031 3 97 0.0 0.0 0.00 0.00 0.00 77 1025.9
20190419220527 4 117 0.0 0.0 0.00 0.00 0.00 77 1025.9
20190419220044 5 84 0.0 0.0 0.00 0.00 0.00 76 1025.9
20190419215535 4 63 0.0 0.0 0.00 0.00 0.00 76 1025.9
20190419215023 4 79 0.0 0.0 0.00 0.00 0.00 78 1026.0
20190419214604 3 80 0.0 0.0 0.00 0.00 0.00 79 1026.0
20190419213524 3 69 0.0 0.0 0.00 0.00 0.00 79 1026.0
20190419213100 4 108 0.0 0.0 0.00 0.00 0.00 78 1026.0
20190419212525 4 101 0.0 0.0 0.00 0.00 0.00 78 1025.9
20190419212021 4 124 0.0 0.0 0.00 0.00 0.00 79 1025.9
20190419211543 4 124 0.0 0.0 0.00 0.00 0.00 79 1026.0
20190419211020 4 124 0.0 0.0 0.00 0.00 0.00 78 1025.9
20190419210520 4 78 0.0 0.0 0.00 0.00 0.00 79 1025.9
20190419210049 4 79 0.0 0.0 0.00 0.00 0.00 79 1025.9
20190419205520 4 89 0.0 0.0 0.00 0.00 0.00 79 1025.9
20190419205019 4 105 0.0 0.0 0.00 0.00 0.00 77 1025.8
20190419204531 5 103 0.0 0.0 0.00 0.00 0.00 76 1025.8
20190419204022 5 79 0.0 0.0 0.00 0.00 0.00 77 1025.8
20190419203522 4 88 0.0 0.0 0.00 0.00 0.00 78 1025.8
20190419203020 4 96 0.0 0.0 0.00 0.00 0.00 78 1025.8
20190419202517 4 85 0.0 0.0 0.00 0.00 0.00 78 1025.7
20190419202027 4 87 0.0 0.0 0.00 0.00 0.00 78 1025.7
20190419201015 5 86 0.0 0.0 0.00 0.00 0.00 77 1025.7
20190419200525 5 103 0.0 0.0 0.00 0.00 0.00 76 1025.7
20190419200019 5 113 0.0 0.0 0.00 0.00 0.00 75 1025.7
20190419195012 6 115 0.0 0.0 0.00 0.00 0.00 73 1025.7
20190419194526 6 105 0.0 0.0 0.00 0.00 0.00 73 1025.7
20190419194013 5 78 0.0 0.0 0.00 0.00 0.00 75 1025.6
20190419193511 5 82 0.0 0.0 0.00 0.00 0.00 76 1025.6
20190419193047 5 105 0.0 0.0 0.00 0.00 0.00 76 1025.5
20190419192513 5 128 0.0 0.0 0.00 0.00 0.00 75 1025.6
20190419191513 6 89 0.0 0.0 0.00 0.00 0.00 75 1025.4
20190419191012 6 110 0.0 0.0 0.00 0.00 0.00 74 1025.4
20190419190511 6 115 0.0 0.0 0.00 0.00 0.00 73 1025.4
20190419190032 6 79 0.0 0.0 0.00 0.00 0.00 73 1025.4
20190419185510 6 106 0.0 0.0 0.00 0.00 0.00 72 1025.3
20190419185009 6 131 0.0 0.0 0.00 0.00 0.00 72 1025.3
20190419184512 6 85 0.0 0.0 0.00 0.00 0.00 71 1025.2
20190419184010 7 87 0.0 0.0 0.00 0.00 0.00 70 1025.1
20190419183507 7 124 0.0 0.0 0.00 0.00 0.00 69 1025.1
20190419183026 7 76 0.0 0.0 0.00 0.00 0.00 69 1025.0
20190419182507 7 92 0.0 0.0 0.00 0.00 0.00 69 1025.0
20190419182007 8 84 0.0 0.0 0.00 0.00 0.00 68 1024.9
20190419181516 8 89 0.0 1.6 0.00 0.00 0.00 67 1024.9
20190419181010 8 82 0.0 1.6 0.00 0.00 0.00 65 1024.7
20190419180509 8 67 0.0 1.6 0.00 0.00 0.00 63 1024.7
20190419180008 8 103 0.0 1.6 0.00 0.00 0.00 62 1024.7
20190419175508 8 105 0.0 1.6 0.00 0.00 0.00 60 1024.6
20190419175003 9 67 0.0 1.6 0.00 0.00 0.00 59 1024.5
20190419173501 10 77 0.0 0.0 0.00 0.00 0.00 56 1024.4
20190419173002 10 61 0.0 1.6 0.00 0.00 0.00 54 1024.3
20190419172502 11 121 0.0 1.6 0.00 0.00 0.00 52 1024.3
20190419172016 11 52 0.0 1.6 0.00 0.00 0.00 50 1024.2
20190419171714 12 10 0.0 1.6 0.00 0.00 0.00 49 1024.2
20190419171059 12 222 0.0 0.0 0.00 0.00 0.00 46 1024.2
20190419170152 13 136 0.0 0.0 0.00 0.00 0.00 43 1024.2
20190419165601 14 132 0.0 1.6 0.00 0.00 0.00 39 1024.1
20190419165100 14 122 0.0 6.4 0.00 0.00 0.00 39 1024.1
20190419164648 14 63 1.6 8.0 0.00 0.00 0.00 38 1024.1
20190419164056 14 105 3.2 12.9 0.00 0.00 0.00 38 1024.0
20190419164005 14 82 3.2 12.9 0.00 0.00 0.00 38 1024.0
20190419163554 14 135 6.4 16.1 0.00 0.00 0.00 38 1024.1
20190419163213 14 121 9.7 16.1 0.00 0.00 0.00 37 1024.1
20190419162555 14 122 8.0 14.5 0.00 0.00 0.00 37 1024.1
20190419162057 14 111 9.7 14.5 0.00 0.00 0.00 37 1024.1
20190419161638 14 123 8.0 14.5 0.00 0.00 0.00 38 1024.1
20190419161052 14 100 8.0 14.5 0.00 0.00 0.00 37 1024.1
20190419160551 14 116 9.7 14.5 0.00 0.00 0.00 37 1024.1
20190419160239 14 132 8.0 16.1 0.00 0.00 0.00 38 1024.1
20190419155549 14 98 12.9 17.7 0.00 0.00 0.00 38 1024.1
20190419155048 14 101 12.9 17.7 0.00 0.00 0.00 38 1024.1
20190419154619 14 79 9.7 16.1 0.00 0.00 0.00 38 1024.1
20190419154057 14 139 9.7 16.1 0.00 0.00 0.00 38 1024.1
20190419153551 14 91 9.7 16.1 0.00 0.00 0.00 37 1024.1
20190419152547 14 142 11.3 14.5 0.00 0.00 0.00 39 1024.1
20190419152046 14 121 9.7 14.5 0.00 0.00 0.00 38 1024.1
20190419151611 14 121 8.0 16.1 0.00 0.00 0.00 39 1024.1
20190419151043 14 83 11.3 16.1 0.00 0.00 0.00 38 1024.1
20190419150154 15 111 6.4 14.5 0.00 0.00 0.00 38 1024.2
20190419145542 15 129 6.4 14.5 0.00 0.00 0.00 38 1024.2
20190419145013 15 138 8.0 20.9 0.00 0.00 0.00 38 1024.2
20190419144519 15 141 4.8 20.9 0.00 0.00 0.00 36 1024.3
20190419143511 15 122 1.6 9.7 0.00 0.00 0.00 38 1024.3
20190419143023 15 266 4.8 11.3 0.00 0.00 0.00 38 1024.3
20190419142510 15 314 6.4 11.3 0.00 0.00 0.00 38 1024.3
20190419142007 15 266 3.2 9.7 0.00 0.00 0.00 39 1024.3
20190419141510 15 228 3.2 11.3 0.00 0.00 0.00 39 1024.3
20190419141005 15 276 6.4 12.9 0.00 0.00 0.00 38 1024.5
20190419140508 15 318 6.4 12.9 0.00 0.00 0.00 38 1024.4
20190419140010 15 319 4.8 14.5 0.00 0.00 0.00 38 1024.5
20190419135503 15 306 3.2 14.5 0.00 0.00 0.00 40 1024.6
20190419135001 14 263 4.8 14.5 0.00 0.00 0.00 40 1024.6
20190419133603 14 291 4.8 14.5 0.00 0.00 0.00 40 1024.8
20190419133200 13 328 6.4 14.5 0.00 0.00 0.00 41 1024.8
20190419131734 13 284 9.7 14.5 0.00 0.00 0.00 40 1024.9
20190419131052 13 283 4.8 14.5 0.00 0.00 0.00 41 1024.9
20190419130551 14 273 6.4 16.1 0.00 0.00 0.00 40 1025.0
20190419130112 14 253 4.8 19.3 0.00 0.00 0.00 40 1025.1
20190419125548 14 238 9.7 19.3 0.00 0.00 0.00 41 1025.0
20190419124639 13 305 8.0 12.9 0.00 0.00 0.00 41 1025.2
20190419124046 13 304 3.2 11.3 0.00 0.00 0.00 41 1025.2
20190419123545 13 291 6.4 12.9 0.00 0.00 0.00 41 1025.3
20190419122043 13 249 1.6 17.7 0.00 0.00 0.00 43 1025.4
20190419121558 13 273 8.0 17.7 0.00 0.00 0.00 41 1025.4
20190419121042 13 349 8.0 17.7 0.00 0.00 0.00 42 1025.4
20190419120538 13 284 8.0 17.7 0.00 0.00 0.00 45 1025.4
20190419120100 13 308 6.4 16.1 0.00 0.00 0.00 43 1025.5
20190419115035 13 153 4.8 14.5 0.00 0.00 0.00 45 1025.6
20190419114622 12 274 9.7 16.1 0.00 0.00 0.00 44 1025.6
20190419114037 12 290 8.0 16.1 0.00 0.00 0.00 45 1025.6
20190419113535 13 290 6.4 14.5 0.00 0.00 0.00 44 1025.6
20190419113053 13 293 4.8 12.9 0.00 0.00 0.00 44 1025.7
20190419112534 12 274 1.6 14.5 0.00 0.00 0.00 43 1025.7
20190419112031 12 122 8.0 14.5 0.00 0.00 0.00 41 1025.8
20190419111606 12 129 4.8 11.3 0.00 0.00 0.00 44 1025.8
20190419111029 12 110 4.8 12.9 0.00 0.00 0.00 44 1025.8
20190419110529 11 67 3.2 16.1 0.00 0.00 0.00 49 1025.9
20190419110049 12 287 11.3 22.5 0.00 0.00 0.00 49 1025.9
20190419105528 11 263 12.9 22.5 0.00 0.00 0.00 49 1026.0
20190419105029 12 256 12.9 20.9 0.00 0.00 0.00 49 1026.0
20190419104030 11 297 0.0 8.0 0.00 0.00 0.00 52 1026.1
20190419103525 11 267 0.0 16.1 0.00 0.00 0.00 52 1026.1
20190419103104 11 256 3.2 16.1 0.00 0.00 0.00 54 1026.1
20190419102525 11 265 3.2 11.3 0.00 0.00 0.00 52 1026.2
20190419102027 11 274 0.0 8.0 0.00 0.00 0.00 52 1026.2
20190419101612 12 274 1.6 8.0 0.00 0.00 0.00 52 1026.2
20190419100524 12 349 0.0 1.6 0.00 0.00 0.00 50 1026.2
20190419100035 12 270 0.0 1.6 0.00 0.00 0.00 48 1026.3
20190419095520 12 100 0.0 1.6 0.00 0.00 0.00 48 1026.3
20190419095033 12 127 0.0 1.6 0.00 0.00 0.00 50 1026.3
20190419094555 12 275 0.0 1.6 0.00 0.00 0.00 49 1026.4
20190419094021 12 268 0.0 1.6 0.00 0.00 0.00 49 1026.3
20190419093526 12 129 0.0 0.0 0.00 0.00 0.00 47 1026.4
20190419093113 11 196 0.0 1.6 0.00 0.00 0.00 52 1026.4
20190419092517 11 180 0.0 11.3 0.00 0.00 0.00 54 1026.5
20190419092014 11 160 1.6 11.3 0.00 0.00 0.00 52 1026.5
20190419091530 11 298 0.0 1.6 0.00 0.00 0.00 54 1026.4
20190419091012 11 129 0.0 3.2 0.00 0.00 0.00 51 1026.5
20190419090515 11 342 0.0 11.3 0.00 0.00 0.00 52 1026.4
20190419090020 11 228 4.8 11.3 0.00 0.00 0.00 53 1026.5
20190419085513 10 285 1.6 11.3 0.00 0.00 0.00 55 1026.5
20190419085011 10 282 6.4 11.3 0.00 0.00 0.00 54 1026.4
20190419084517 11 271 0.0 4.8 0.00 0.00 0.00 54 1026.5
20190419084012 11 85 0.0 1.6 0.00 0.00 0.00 51 1026.5
20190419083109 10 152 1.6 9.7 0.00 0.00 0.00 50 1026.5
20190419082005 10 160 4.8 9.7 0.00 0.00 0.00 51 1026.5
20190419081509 10 117 3.2 9.7 0.00 0.00 0.00 50 1026.6
20190419081002 10 131 1.6 9.7 0.00 0.00 0.00 53 1026.5
20190419080505 10 188 1.6 12.9 0.00 0.00 0.00 54 1026.5
20190419080004 10 150 0.0 12.9 0.00 0.00 0.00 54 1026.5
20190419075100 10 104 0.0 1.6 0.00 0.00 0.00 57 1026.4
20190419074058 9 249 0.0 1.6 0.00 0.00 0.00 60 1026.3
20190419073600 9 228 0.0 0.0 0.00 0.00 0.00 60 1026.3
20190419073139 10 271 0.0 0.0 0.00 0.00 0.00 61 1026.3
20190419072054 9 242 0.0 0.0 0.00 0.00 0.00 63 1026.2
20190419071634 8 101 0.0 0.0 0.00 0.00 0.00 66 1026.2
20190419071058 8 276 0.0 0.0 0.00 0.00 0.00 66 1026.3